Погода в Шарковщине

Погода в Шарковщине : погода сейчас, прогноз погоды и архив. Всё, что Вы хотите узнать о погоде в Шарковщине!

Хотите узнать прогноз погоды в Шарковщине? Тогда Вам сюда: Погода в Шарковщине

Поиск расширенной информации на нашем сайте:

Другие новости

Новости СМИ2

Главная страница сайта

Новости сайта

02.10.2013

Напоминаем, что на нашем новом сайте вы можете получить высокодетализированные прогнозы погоды по пунктам России, СНГ и мира (включающие важные для авиации метеовеличины, такие как направление и скорость ветра, видимость, явления погоды, количество и форма облачности, нижняя и верхняя граница облачности), а также ознакомиться с разнообразными материалами по авиационной метеорологии и подборкой полезных ссылок на эту тему.

Сайт Метеоцентр.Азия посвящён разработке технологий оптимизации авиаметеорологического обслуживания, включая проектирование и перспективное создание нескольких автоматизированных авиаметеорологических систем:
- система выпуска высокодетальных прогностических карт явлений погоды для нижнего воздушного пространства по России и ближнему зарубежью;
- система верификации прогнозов TAF (выпускаемых синоптиками официальных АМСГ РФ и ближнего зарубежья) и AUTOTAF (выпускаемых сайтом Метеоцентр.Азия) - выявление ошибок, онлайн-сопоставление с фактической погодой METAR, автоматическое внесение коррективов в прогнозы при резком отклонении фактической погоды от прогноза, подсчёт оправдываемости прогнозов по элементам и в целом;
- система обработки, анализа и отображения авиаметеорологической информации для применения провайдерами метеорологической информации.

Рекомендуем: http://vseprint.ru/ постер в дар ессентуки.

Погода в Шарковщине - сегодня

Время (UTC), дата Ветер
(°,м/с) 
Видим.   Явления Облачность Т
(°С)
Тd
(°С)
f(%) Тe
(°С)
Pmin
(гПа)
dP
(гПа)
Po
(мм)
O2
(г/м3)
Тmin Tmax R s Состояние
почвы
06 19.02.17 240 (ЮЗ) 4{11}  18000 м    10/10 330 м 
[St]
+1.3 -0.7 86 -1  1016  -1.3  750  301  -0.8      равномерный
мокрый или
старый снег
100% 
09 19.02.17 250 (З) 5-11{11}  16000 м    10/10 300 м 
[St]
+1.5 -0.7 85 -1  1015.3  -0.7  749  300           
12 19.02.17 240 (ЮЗ) 6-12{12}  18000 м    10/10 330 м 
[St]
+1.9 -0.9 82 -1  1013.4  -1.8  748  299           
15 19.02.17 230 (ЮЗ) 5-10{12}  17000 м    10/10 330 м 
[St]
+1.7 -0.5 85 -1  1012.2  -1.2  747  299           
18 19.02.17 240 (ЮЗ) 4{10}  10 км  слаб. дождь  10/10 360 м 
[Frnb|Ns]
+1.2 -0.8 86 -1  1011.3  -0.9  746  299    +1.9  0.4   
00 20.02.17 250 (З) 5-10{11}  8000 м  дымка{дождь}  10/10 240 м 
[St]
+1.9 +0.3 89 -1  1009.8  -0.7  745  298           
03 20.02.17 230 (ЮЗ) 5-10{11}  13000 м    10/10 270 м 
[St]
+2.3 +0.4 87 1007.8  -1.9  744  297      0.0   
06 20.02.17 230 (ЮЗ) 4{11}  6000 м  дымка  10/10 300 м 
[St]
+2.1 +0.8 91 1006.6  -1.2  743  297  +1.2    0.0  равномерный
мокрый или
старый снег
100% 
09 20.02.17 220 (ЮЗ) 4{10}  8000 м  слаб. дождь  10/10 240 м 
[Frnb|Ns]
+2.2 +0.9 91 1005.1  -1.5  742  296           
12 20.02.17 240 (ЮЗ) 5-11{12}  11000 м  {дождь}  10/10 450 м 
[St]
+3.5 +0 78 +1  1002.3  -2.6  740  294           
15 20.02.17 230 (ЮЗ) 5-10{12}  8000 м  слаб. дождь  10/10 300 м 
[Frnb|Ns]
+2.7 +0.9 88 999.8  -2.5  738  294      0.0     
18 20.02.17 240 (ЮЗ) 5-10{12}  9000 м  слаб. дождь  10/10 300 м 
[Frnb|Ns]
+2.3 +0.7 89 996.7  -3.2  735  294    +3.6   
00 21.02.17 240 (ЮЗ) 19000 м  {дождь}  10/10 270 м 
[St]
+2.3 +0.7 89 989.7  -2.6  730  292           
03 21.02.17 230 (ЮЗ) 5-10{11}  9000 м  слаб. дождь  10/10 270 м 
[Frnb|Ns]
+2.3 +1.3 93 986.8  -2.7  728  291       
06 21.02.17 220 (ЮЗ) 3{10}  8000 м  слаб. дождь  10/10 180 м 
[Frnb|Ns]
+2.8 +2 94 +1  984.8  -2  727  289  +1.2    мокрый или
старый снег
50-90% 
09 21.02.17 270 (З) 9000 м  слаб. морось{дождь}  10/10 240 м 
[Frnb]
+4 +3 93 +2  985.6  0.8  727  288           
12 21.02.17 250 (З) 10 км  слаб. дождь{морось}  10/10 400 м 
[Frnb|Ns]
+4 +3 93 +3  987.2  1.6  729  289           
18 21.02.17 260 (З) 20000 м  в посл. час дождь  10/10 270 м 
[Frnb]
+3.2 +1.9 91 +2  988.8  0.9  730  290    +4.1   
00 22.02.17 340 (С) 4200 м  слаб. снег{дождь}  10/10 240 м 
[Frnb|Ns]
-0.3 -1.5 92 -1  995.5  3.9  734  296           
03 22.02.17 350 (С) 3{10}  15000 м  {снег}  10/10 360 м 
[St]
-2.1 -4.6 83 -4  999.7  737  300      0.7  <0.5   
06 22.02.17 320 (СЗ) 22000 м  {снег}  9/9 630 м 
[Sc]
-3.6 -7.2 76 -6  1001.8  739  302  -3.7    0.7  <0.5  равномерный
сухой снег
100% 
09 22.02.17 250 (З) 25000 м    9/9 660 м 
[Sc]
-3.4 -7.7 72 -5  1001.8  739  302           
12 22.02.17 180 (Ю) 24000 м    9/9 700 м 
[Sc]
-2.7 -6.4 76 -5  999.1  -2.6  737  301           
15 22.02.17 160 (Ю) 20000 м    10/10 360 м 
[St]
-1.1 -4.7 76 -3  994.1  -4.8  733  297           
18 22.02.17 170 (Ю) 2800 м  снег  10/10 270 м 
[Frnb|Ns]
-0.8 -1.8 93 -3  988.9  -5.1  730  295    -0.8   
Время (UTC), дата Ветер
(°,м/с) 
Видим.   Явления Облачность Т
(°С)
Тd
(°С)
f(%) Тe
(°С)
Pmin
(гПа)
dP
(гПа)
Po
(мм)
O2
(г/м3)
Тmin Tmax R s Состояние
почвы

Для получения пояснительной информации подведите курсор к названию столбца.

ПОГОДА в Шарковщине - архив

Всё, что Вы хотите узнать о погоде в Шарковщине - удобно и подробно!

Выберите нужную дату (начиная с 1 января 2015* года) и нажмите кнопку "Найти".
Будут отображены архивные сводки погоды по пункту Шарковщина, начиная с указанной даты.


Отображать данные в формате CSV (для использования в таблицах Excel)


Внимание! Наш архив погоды предназначен исключительно для личного некоммерческого использования в познавательных целях. Если Вам необходимы официальные справки о состоянии погоды (для производственных, юридических, коммерческих и т.п. целей), обращайтесь в органы Росгидромета.

*Примечание: данная дата относится к архиву по метеостанциям СССР (Россия, СНГ, Балтия).
Архив по метеостанциям Зарубежной Европы и Азии (кроме Китая) хранится 10 дней, по другим регионам земного шара (Китай, Африка, Америка, Австралия, Океания) - 1 день.

Шарковщина - район местоположения метеостанции


Название, широта, долгота, высота метеостанции:
Шарковщина 55.4°ш. 27.5°д. 131 м над ур. моря [Беларусь]

Дополнительная информация

В oтличие oт бoльшинства пoгoдных сайтoв мы публикуем пoдрoбную метеoинфoрмацию в детальнoм прoфессиoнальнoм фoрмате.

Характеристики температуры и влажнoсти вoздуха измеряются на высoте 2 м в тени вдали oт зданий и деревьев.
Скoрoсть ветра измеряется на высoте 10 м (на урoвне рoста челoвека скoрoсть ветра ниже в 1.5-2 раза). Если метеoстанция нахoдится в гoрoде или в лесу, тo скoрoсть ветра занижена на 2-4 м/с пo сравнению с oткрытым местoм. Скoрoсть ветра над акватoриями крупных рек и oзёр, а также на вершинах хoлмoв на 2-5 м/с выше, чем в oбычных услoвиях.
Атмoсфернoе давление в разных тoчках местнoсти мoжет значительнo oтличаться oт давления на метеoстанции, в зависимoсти oт услoвий рельефа (при пoдъёме на 10 м давление пoнижается примернo на 1 мм рт.ст.).